Location: Baia Mare
(47.6567°N, 23.5850°E)
Time: 02:21:32

ISS - Pass Details

Date: 18 March 2018
Orbit: 403 x 406 km, 51.6° (Epoch: 24 March)

Event Time Altitude Azimuth Distance (km) Brightness Sun altitude
Exits shadow 04:32:49 48° 140° (SE) 540 -3.2 -20.6°
Drops below altitude 10° 04:35:20 10° 123° (ESE) 1,460 -0.6 -20.2°
Sets 04:37:24 0° 122° (ESE) 2,316 0.5 -19.9°
